Location: Newark
(50.4348°N, 30.5552°E)
Time: 04:47:50
(UTC+00:00)

Tiros 1 - All Passes

Search period start: 23 January 2020 00:00
Search period end: 02 February 2020 00:00
Orbit: 630 x 664 km, 48.4° (Epoch: 22 January)

Date Brightness Start Highest point End Pass type
(mag) Time Alt. Az. Time Alt. Az. Time Alt. Az.
23 Jan - 10:15:17 10° SSE 10:16:26 11° SE 10:17:34 10° ESE daylight
23 Jan - 11:53:20 10° SW 11:57:38 36° SSE 12:01:57 10° E daylight
23 Jan - 13:34:45 10° WSW 13:39:28 67° S 13:44:13 10° E daylight
23 Jan - 15:16:49 10° W 15:21:31 60° SSW 15:26:15 10° ESE visible
23 Jan - 16:59:11 10° W 17:03:14 27° SSW 17:07:17 10° SSE visible
24 Jan - 10:38:28 10° S 10:41:55 21° SE 10:45:25 10° E daylight
24 Jan - 12:18:53 10° WSW 12:23:28 52° SSE 12:28:06 10° E daylight
24 Jan - 14:00:45 10° W 14:05:28 70° S 14:10:15 10° E daylight
24 Jan - 15:42:53 10° W 15:47:26 44° SSW 15:52:00 10° SE visible
24 Jan - 17:25:59 10° WSW 17:28:50 16° SW 17:31:42 10° S visible
25 Jan - 11:03:22 10° SW 11:07:35 34° SSE 11:11:52 10° E daylight
25 Jan - 12:44:44 10° WSW 12:49:25 66° S 12:54:09 10° E daylight
25 Jan - 14:26:46 10° W 14:31:28 62° SSW 14:36:12 10° ESE daylight
25 Jan - 16:09:07 10° W 16:13:13 29° SSW 16:17:20 10° SSE visible
26 Jan - 09:48:37 10° S 09:51:55 19° SE 09:55:16 10° E daylight
26 Jan - 11:28:53 10° SW 11:33:25 50° SSE 11:38:02 10° E daylight
26 Jan - 13:10:42 10° W 13:15:25 70° S 13:20:11 10° E daylight
26 Jan - 14:52:50 10° W 14:57:23 46° SSW 15:01:58 10° SE daylight
26 Jan - 16:35:48 10° W 16:38:50 17° SW 16:41:53 10° S visible
27 Jan - 10:13:25 10° SSW 10:17:34 32° SSE 10:21:47 10° E daylight
27 Jan - 11:54:42 10° WSW 11:59:21 65° S 12:04:05 10° E daylight
27 Jan - 13:36:44 10° W 13:41:25 63° S 13:46:09 10° ESE daylight
27 Jan - 15:19:02 10° W 15:23:11 30° SSW 15:27:21 10° SSE visible
28 Jan - 08:58:46 10° S 09:01:55 18° SE 09:05:06 10° E daylight
28 Jan - 10:38:53 10° SW 10:43:23 48° SSE 10:47:57 10° E daylight
28 Jan - 12:20:40 10° W 12:25:22 70° S 12:30:07 10° E daylight
28 Jan - 14:02:47 10° W 14:07:21 48° SSW 14:11:57 10° SE daylight
28 Jan - 15:45:38 10° W 15:48:49 18° SW 15:52:01 10° S visible
29 Jan - 09:23:29 10° SSW 09:27:33 30° SSE 09:31:41 10° E daylight
29 Jan - 11:04:41 10° WSW 11:09:19 63° S 11:14:01 10° E daylight
29 Jan - 12:46:41 10° W 12:51:22 64° S 12:56:06 10° ESE daylight
29 Jan - 14:28:58 10° W 14:33:10 32° SSW 14:37:23 10° SSE daylight
30 Jan - 08:08:57 10° S 08:11:55 17° SE 08:14:55 10° E daylight
30 Jan - 09:48:53 10° SW 09:53:21 46° SSE 09:57:53 10° E daylight
30 Jan - 11:30:38 10° W 11:35:19 70° S 11:40:03 10° E daylight
30 Jan - 13:12:44 10° W 13:17:18 49° SSW 13:21:55 10° SE daylight
30 Jan - 14:55:30 10° W 14:58:49 19° SW 15:02:09 10° S daylight
31 Jan - 08:33:33 10° SSW 08:37:32 29° SSE 08:41:35 10° E daylight
31 Jan - 10:14:39 10° WSW 10:19:16 62° SSE 10:23:57 10° E daylight
31 Jan - 11:56:40 10° W 12:01:19 65° S 12:06:02 10° ESE daylight
31 Jan - 13:38:54 10° W 13:43:08 33° SSW 13:47:24 10° SE daylight
01 Feb - 07:19:09 10° S 07:21:56 16° SE 07:24:43 10° ESE daylight
01 Feb - 08:58:54 10° SW 09:03:19 45° SSE 09:07:48 10° E daylight
01 Feb - 10:40:36 10° W 10:45:16 70° S 10:49:59 10° E daylight
01 Feb - 12:22:42 10° W 12:27:16 51° SSW 12:31:52 10° ESE daylight
01 Feb - 14:05:22 10° W 14:08:49 20° SW 14:12:15 10° S daylight
